Hourly Weather Aci Castello

Today, 29 July, Thursday

Time Temperature Precipitation Wind Pressure Humidity
00:00 +31°C° 0 mm 2 mps 750 mmHg 30%
01:00 +31°C° 0 mm 2 mps 750 mmHg 30%
02:00 +31°C° 0 mm 2 mps 749 mmHg 30%
03:00 +31°C° 0 mm 2 mps 749 mmHg 30%
04:00 +31°C° 0 mm 2 mps 749 mmHg 31%
05:00 +32°C° 0 mm 1 mps 749 mmHg 28%
06:00 +34°C° 0 mm 1 mps 749 mmHg 26%
07:00 +35°C° 0 mm 1 mps 749 mmHg 24%
08:00 +37°C° 0 mm 1 mps 749 mmHg 22%
09:00 +40°C° 0 mm 1 mps 749 mmHg 19%
10:00 +41°C° 0 mm 2 mps 749 mmHg 17%
11:00 +42°C° 0 mm 2 mps 749 mmHg 17%
12:00 +43°C° 0 mm 3 mps 749 mmHg 16%
13:00 +44°C° 0 mm 4 mps 749 mmHg 15%
14:00 +43°C° 0 mm 3 mps 749 mmHg 16%
15:00 +43°C° 0 mm 3 mps 748 mmHg 17%
16:00 +42°C° 0 mm 3 mps 748 mmHg 18%
17:00 +39°C° 0 mm 3 mps 748 mmHg 21%
18:00 +38°C° 0 mm 2 mps 748 mmHg 24%
19:00 +35°C° 0 mm 1 mps 748 mmHg 26%
20:00 +34°C° 0 mm 1 mps 749 mmHg 27%
21:00 +34°C° 0 mm 2 mps 749 mmHg 27%
22:00 +34°C° 0 mm 2 mps 749 mmHg 28%
23:00 +32°C° 0 mm 2 mps 749 mmHg 28%

Tomorrow, 30 July, Friday

Time Temperature Precipitation Wind Pressure Humidity
00:00 +32°C° 0 mm 2 mps 748 mmHg 28%
01:00 +32°C° 0 mm 2 mps 748 mmHg 27%
02:00 +32°C° 0 mm 2 mps 748 mmHg 27%
03:00 +31°C° 0 mm 2 mps 748 mmHg 27%
04:00 +31°C° 0 mm 2 mps 747 mmHg 27%
05:00 +34°C° 0 mm 2 mps 748 mmHg 25%
06:00 +35°C° 0 mm 2 mps 748 mmHg 23%
07:00 +35°C° 0 mm 1 mps 748 mmHg 20%
08:00 +38°C° 0 mm 2 mps 748 mmHg 18%
09:00 +40°C° 0 mm 2 mps 748 mmHg 16%
10:00 +42°C° 0 mm 2 mps 748 mmHg 13%
11:00 +44°C° 0 mm 3 mps 748 mmHg 13%
12:00 +44°C° 0 mm 4 mps 748 mmHg 13%
13:00 +46°C° 0 mm 5 mps 747 mmHg 12%
14:00 +44°C° 0 mm 4 mps 747 mmHg 13%
15:00 +44°C° 0 mm 4 mps 747 mmHg 14%
16:00 +44°C° 0 mm 4 mps 746 mmHg 14%
17:00 +42°C° 0 mm 3 mps 746 mmHg 17%
18:00 +38°C° 0 mm 3 mps 747 mmHg 20%
19:00 +36°C° 0 mm 2 mps 747 mmHg 23%
20:00 +35°C° 0 mm 2 mps 747 mmHg 25%
21:00 +34°C° 0 mm 2 mps 747 mmHg 27%
22:00 +32°C° 0 mm 2 mps 747 mmHg 28%
23:00 +32°C° 0 mm 2 mps 747 mmHg 28%

Day after tomorrow, 31 July, Saturday

Time Temperature Precipitation Wind Pressure Humidity
00:00 +32°C° 0 mm 2 mps 747 mmHg 28%
01:00 +31°C° 0 mm 2 mps 747 mmHg 28%
02:00 +31°C° 0 mm 2 mps 747 mmHg 28%
03:00 +31°C° 0 mm 2 mps 746 mmHg 28%
04:00 +30°C° 0 mm 2 mps 746 mmHg 28%
05:00 +32°C° 0 mm 2 mps 746 mmHg 26%
06:00 +33°C° 0 mm 1 mps 747 mmHg 24%
07:00 +35°C° 0 mm 1 mps 747 mmHg 22%
08:00 +37°C° 0 mm 1 mps 747 mmHg 20%
09:00 +39°C° 0 mm 1 mps 747 mmHg 18%
10:00 +41°C° 0 mm 2 mps 747 mmHg 16%
11:00 +42°C° 0 mm 2 mps 747 mmHg 16%
12:00 +43°C° 0 mm 3 mps 746 mmHg 16%
13:00 +44°C° 0 mm 4 mps 746 mmHg 16%
14:00 +43°C° 0 mm 4 mps 746 mmHg 17%
15:00 +43°C° 0 mm 3 mps 746 mmHg 18%
16:00 +42°C° 0 mm 3 mps 746 mmHg 18%
17:00 +39°C° 0 mm 3 mps 746 mmHg 22%
18:00 +37°C° 0 mm 2 mps 746 mmHg 25%
19:00 +34°C° 0 mm 1 mps 746 mmHg 28%
20:00 +34°C° 0 mm 1 mps 746 mmHg 28%
21:00 +33°C° 0 mm 1 mps 747 mmHg 28%
22:00 +33°C° 0 mm 1 mps 747 mmHg 28%
23:00 +34°C° 0 mm 2 mps 747 mmHg 27%

1 August, Sunday

Time Temperature Precipitation Wind Pressure Humidity
00:00 +34°C° 0 mm 2 mps 747 mmHg 26%
01:00 +34°C° 0 mm 2 mps 746 mmHg 25%
02:00 +32°C° 0 mm 2 mps 746 mmHg 26%
03:00 +32°C° 0 mm 2 mps 746 mmHg 26%
04:00 +32°C° 0 mm 2 mps 746 mmHg 27%
05:00 +35°C° 0 mm 2 mps 746 mmHg 24%
06:00 +36°C° 0 mm 2 mps 746 mmHg 22%
07:00 +38°C° 0 mm 2 mps 746 mmHg 20%
08:00 +40°C° 0 mm 2 mps 746 mmHg 18%
09:00 +42°C° 0 mm 2 mps 746 mmHg 16%
10:00 +44°C° 0 mm 3 mps 746 mmHg 14%
11:00 +45°C° 0 mm 3 mps 746 mmHg 15%
12:00 +45°C° 0 mm 4 mps 746 mmHg 15%
13:00 +45°C° 0 mm 4 mps 745 mmHg 16%
14:00 +45°C° 0 mm 4 mps 745 mmHg 16%
15:00 +45°C° 0 mm 4 mps 745 mmHg 16%
16:00 +44°C° 0 mm 4 mps 745 mmHg 16%
17:00 +42°C° 0 mm 3 mps 746 mmHg 19%
18:00 +39°C° 0 mm 3 mps 746 mmHg 23%
19:00 +37°C° 0 mm 2 mps 746 mmHg 27%
20:00 +36°C° 0 mm 2 mps 746 mmHg 28%
21:00 +35°C° 0 mm 2 mps 747 mmHg 29%
22:00 +34°C° 0 mm 2 mps 747 mmHg 29%
23:00 +34°C° 0 mm 2 mps 747 mmHg 29%

2 August, Monday

Time Temperature Precipitation Wind Pressure Humidity
00:00 +34°C° 0 mm 2 mps 747 mmHg 29%
01:00 +34°C° 0 mm 2 mps 747 mmHg 29%
02:00 +32°C° 0 mm 2 mps 747 mmHg 30%
03:00 +32°C° 0 mm 2 mps 747 mmHg 31%
04:00 +31°C° 0 mm 2 mps 747 mmHg 32%
05:00 +34°C° 0 mm 2 mps 747 mmHg 29%
06:00 +35°C° 0 mm 2 mps 747 mmHg 27%
07:00 +36°C° 0 mm 2 mps 748 mmHg 24%
08:00 +38°C° 0 mm 3 mps 748 mmHg 23%
09:00 +40°C° 0 mm 3 mps 748 mmHg 22%
10:00 +42°C° 0 mm 3 mps 748 mmHg 21%
11:00 +42°C° 0 mm 4 mps 748 mmHg 23%
12:00 +42°C° 0 mm 4 mps 748 mmHg 25%
13:00 +42°C° 0 mm 4 mps 748 mmHg 27%
14:00 +41°C° 0 mm 4 mps 748 mmHg 28%
15:00 +39°C° 0 mm 3 mps 748 mmHg 30%
16:00 +39°C° 0 mm 3 mps 748 mmHg 32%
17:00 +37°C° 0 mm 3 mps 748 mmHg 34%
18:00 +35°C° 0 mm 2 mps 748 mmHg 37%
19:00 +34°C° 0 mm 2 mps 748 mmHg 40%
20:00 +32°C° 0 mm 2 mps 749 mmHg 40%
21:00 +32°C° 0 mm 2 mps 749 mmHg 41%
22:00 +31°C° 0 mm 1 mps 749 mmHg 41%
23:00 +31°C° 0 mm 1 mps 749 mmHg 40%

3 August, Tuesday

Time Temperature Precipitation Wind Pressure Humidity
00:00 +31°C° 0 mm 1 mps 749 mmHg 39%
01:00 +31°C° 0 mm 1 mps 748 mmHg 38%
02:00 +31°C° 0 mm 1 mps 748 mmHg 38%
03:00 +31°C° 0 mm 1 mps 748 mmHg 38%
04:00 +30°C° 0 mm 1 mps 748 mmHg 38%
05:00 +32°C° 0 mm 1 mps 748 mmHg 35%
06:00 +33°C° 0 mm 1 mps 748 mmHg 33%
07:00 +34°C° 0 mm 1 mps 748 mmHg 30%
08:00 +37°C° 0 mm 2 mps 748 mmHg 27%
09:00 +39°C° 0 mm 3 mps 748 mmHg 23%
10:00 +42°C° 0 mm 3 mps 748 mmHg 19%
11:00 +43°C° 0 mm 4 mps 748 mmHg 18%
12:00 +45°C° 0 mm 5 mps 748 mmHg 17%
13:00 +46°C° 0 mm 5 mps 747 mmHg 16%
14:00 +45°C° 0 mm 5 mps 747 mmHg 17%
15:00 +45°C° 0 mm 5 mps 747 mmHg 17%
16:00 +45°C° 0 mm 5 mps 747 mmHg 18%
17:00 +41°C° 0 mm 4 mps 747 mmHg 21%
18:00 +38°C° 0 mm 3 mps 747 mmHg 24%
19:00 +36°C° 0 mm 2 mps 747 mmHg 27%
20:00 +35°C° 0 mm 2 mps 747 mmHg 28%
21:00 +34°C° 0 mm 2 mps 747 mmHg 29%
22:00 +32°C° 0 mm 2 mps 748 mmHg 30%
23:00 +32°C° 0 mm 2 mps 748 mmHg 30%
Show more

We Need Your Consent

Meteoprog and our Service Providers may store and access personal data such as cookies, device identifiers or other similar technologies on your device and process such data to personalise content and ads, as well as provide social media features and to analyse the traffic.

  • Store and/or access information on your device

    Cookies, device identifiers or other information can be stored or accessed on your device for the purposes indicated above.

  • Personalised ads and content, ad and content measurement, audience insights, and products development

    Ads and content can be personalised based on a profile. More data can be added to better personalise ads and content. Ad and content performance can be measured. Insights about the audience who saw the ads and content can be derived. Such data can be used to develop or improve user’s experience, systems and software.

By clicking ‘I Agree’ you will allow the use of indicated cookies, device identifiers, web beacons or other similar technologies. Your settings can be changed in the browser on your device.

For certain purposes, legitimate interests may be relied on, rather than consent. You can read more about this in our Privacy and Cookie Policy.